Weather in Karazhal

Kazakhstan     48°00′03″N   70°47′08″E
temp.,
°C
wind,
m/s
gust,
m/s
humid.,
%
clouds,
%
prec.,
mm/h
press.,
hPa
HPBL,
m
9 march, tue
tue900:00−15ese22920 0.0 103020
03:00−15ese22880 0.0 102920
06:00−15ese34790 0.0 102821
09:00−14ese34670 0.0 102828
12:00−8se45770 0.0 1026195
15:00−3sse46860 0.0 1022259
18:000s36969 0.0 1020184
21:000se6109393 0.0 1019191
10 march, wed
wed1000:00−1se7139296 0.0 1016265
03:00+1sse9159593 0.0 1012363
06:00+1sse11198997 0.0 1009416
09:00+1sse101694100 0.3 1008393
12:00+1s914100100 2.1 1007413
15:00+2sw814100100 2.7 1009475
18:00−2wnw81089100 2.7 1013596
21:00−9wsw479129 0.0 1018130
11 march, thu
thu1100:00−10sw469115 0.0 102089
03:00−8sw6119353 0.1 1020292
06:00−7ssw6119475 0.3 1021276
09:00−6ssw8159083 0.0 1019439
12:00−2sw12179482 0.4 10181126
15:00−2w81197100 3.3 1019633
18:00−5w81585100 4.8 10201092
21:00−9wsw4989100 0.0 1023285
12 march, fri
fri1200:00−11wsw3490100 0.0 102479
03:00−13w2384100 0.0 102421
06:00−15sw118399 0.0 102520
09:00−13s1281100 0.0 102674
12:00−10wsw226298 0.0 1024364
15:00−10nw336993 0.0 1023377
18:00−12nnw348397 0.0 1024154
21:00−15nne4583100 0.0 102695
13 march, sat
sat1300:00−16nne51086100 0.0 1028270
03:00−18ne71187100 0.0 1028292
06:00−21ne71387100 0.0 1030288
09:00−20ene9157725 0.0 1032312
12:00−15ene8136835 0.0 1031351
15:00−12ene81170100 0.0 1030403
18:00−13ne81375100 0.0 1029299
21:00−15ene71279100 0.0 1030230